Wind_Speed
25 24 26 28 30 31 33 35 38 39 40 40 40 38 37 35 35 36 37 37 36 34 34 33 31 29 28 27 26 24 24 24 23 23 23 23 23 23
23 23 24 25 26 29 31 34 36 38 39 38 38 38 37 36 35 34 36 37 35 34 33 31 30 28 27 26 25 24 23 24 24 24 24 23 23 23
24 24 23 23 23 24 26 28 31 34 35 35 35 36 36 36 35 35 36 34 33 32 31 30 29 27 25 24 24 23 22 23 23 24 24 23 23 22
26 26 25 24 24 23 23 23 24 26 30 32 33 33 33 33 34 34 34 32 31 31 30 29 28 25 24 22 22 23 22 22 22 23 23 22 21 20
27 27 27 27 26 26 24 24 23 22 22 23 26 27 29 30 31 32 32 29 28 28 29 28 27 25 22 22 22 22 22 22 22 22 22 21 20 18
27 28 28 29 29 28 27 26 24 22 20 19 20 21 23 25 26 27 27 25 24 24 25 25 24 23 22 21 22 22 22 23 22 22 21 21 20 19
27 27 27 28 29 30 30 29 28 26 24 22 21 19 20 21 22 22 22 21 20 21 21 22 21 21 21 21 21 21 22 23 23 22 22 21 21 21
26 26 26 27 28 30 30 31 31 30 29 28 26 24 23 22 22 21 20 20 20 21 21 21 21 21 21 21 20 21 21 22 22 22 23 23 23 23
25 26 26 27 28 29 30 31 32 32 32 32 31 30 29 27 26 25 25 24 24 24 24 25 24 23 23 22 21 21 21 22 22 23 24 25 26 26
26 26 26 27 27 28 29 30 31 32 33 34 34 34 34 33 32 30 29 28 28 28 27 26 26 26 25 25 24 23 23 23 23 24 24 26 28 29
24 25 25 26 26 27 28 30 31 32 34 35 36 36 37 37 37 36 35 33 33 32 30 30 31 31 30 30 29 27 26 27 27 26 27 27 28 30
22 22 23 24 25 26 27 28 29 31 32 34 35 37 38 39 40 40 39 38 37 37 36 36 35 35 35 34 34 32 32 32 31 31 30 30 31 31
20 21 22 23 24 25 26 27 28 29 30 31 33 34 36 38 39 40 41 41 41 41 41 42 41 41 41 40 39 38 37 37 36 35 35 34 34 34
21 23 24 25 26 27 28 28 29 30 30 31 31 32 33 35 36 37 39 40 41 41 42 43 44 45 45 45 45 44 43 42 41 40 38 37 37 36
23 25 26 27 28 28 29 30 31 31 32 32 33 33 33 34 34 35 35 37 38 40 41 42 44 45 46 47 48 48 47 46 46 44 43 41 40 39
24 25 26 26 27 28 28 29 30 30 31 32 32 33 34 35 36 36 36 36 37 37 39 41 43 45 46 46 46 47 48 48 47 47 46 45 43 41
24 24 24 25 25 26 26 27 27 27 28 29 30 32 33 35 36 37 38 38 37 36 36 38 40 42 44 45 45 46 46 46 46 46 46 45 44 42
23 23 24 25 26 26 26 26 25 25 25 26 27 28 30 33 35 37 38 38 39 38 36 36 36 37 40 42 43 43 43 43 43 44 44 43 42 42
23 24 25 26 27 26 26 26 25 24 24 24 25 26 28 30 32 34 37 39 40 39 38 37 35 33 33 34 37 40 40 40 40 40 40 40 40 41
24 25 26 26 26 26 26 25 25 24 24 25 26 26 27 28 29 31 34 37 39 40 40 39 38 35 32 31 31 32 36 38 39 40 40 39 39 40
25 25 26 26 26 26 26 26 25 25 25 26 26 26 27 27 28 28 30 33 36 39 40 41 40 39 37 34 33 31 31 32 34 37 39 39 39 40
24 25 26 26 27 27 26 26 25 25 25 26 26 26 26 26 26 26 27 28 31 34 37 40 41 41 40 39 37 36 34 32 31 31 34 36 38 38
25 26 26 27 28 28 28 27 26 26 26 26 26 26 26 25 25 24 24 25 27 29 33 36 39 42 43 43 42 41 39 37 34 33 31 31 32 33
Wind_Direction
289 291 290 284 277 273 269 266 264 262 261 262 263 266 266 266 265 263 261 258 259 257 255 255 256 257 257 257 256 256 254 252 252 250 248 252 256 263
285 289 293 291 282 277 273 269 265 263 264 263 262 264 266 266 265 262 257 255 252 250 249 250 252 254 255 256 255 254 252 250 250 248 249 252 256 260
278 283 286 291 292 289 282 276 271 268 266 264 264 265 264 265 264 260 254 248 244 243 243 245 249 252 254 254 253 251 248 248 249 249 251 255 254 256
276 276 279 283 285 289 288 286 282 275 270 268 266 265 263 262 259 255 249 243 241 239 240 243 246 249 250 250 249 247 245 247 249 250 251 251 251 250
274 274 275 277 279 282 285 287 287 284 278 272 266 261 257 253 249 245 242 240 239 240 240 239 242 244 245 245 245 244 245 245 247 246 246 246 244 238
272 272 272 273 273 275 278 280 283 282 278 275 267 258 251 247 243 241 238 238 240 243 240 238 238 241 243 244 244 244 244 243 243 240 240 240 235 230
273 272 272 272 272 272 273 274 275 276 275 273 271 267 260 251 243 241 239 239 244 247 242 239 239 242 245 245 245 244 244 243 241 237 235 232 229 227
272 271 271 271 271 270 270 270 270 271 270 270 268 266 263 260 255 252 248 248 252 252 249 247 247 248 248 248 247 244 243 242 240 237 234 231 230 228
272 272 271 269 268 267 267 268 268 268 267 267 267 266 263 260 257 254 253 253 252 252 252 251 251 252 252 252 251 248 245 242 240 238 237 235 234 233
274 273 272 271 269 267 267 266 266 266 266 265 265 264 263 262 259 256 255 253 251 251 250 251 251 252 252 252 251 249 246 244 244 243 242 242 240 239
277 276 275 273 271 269 268 267 266 265 263 263 262 261 260 259 259 256 254 252 248 245 244 244 245 248 249 251 250 247 246 245 246 247 248 249 248 247
281 280 278 277 275 272 271 269 267 265 263 263 262 261 260 258 257 256 255 253 249 244 242 241 242 244 244 246 248 247 247 248 247 247 248 249 251 253
288 286 285 282 280 277 275 273 270 268 266 264 264 262 262 261 259 258 256 254 251 247 244 241 241 243 244 246 246 246 248 250 250 249 248 248 250 253
292 291 290 288 286 284 281 279 276 273 270 267 265 264 263 262 262 262 261 258 255 253 250 247 245 244 245 247 248 249 250 251 252 252 252 251 252 253
298 297 296 294 292 290 287 284 281 277 274 271 268 266 264 263 263 263 262 261 260 257 254 251 249 248 248 249 251 252 253 254 255 255 255 254 253 253
305 304 303 302 300 298 295 292 288 283 279 275 272 268 265 264 263 263 262 261 261 259 256 254 253 252 252 252 252 253 253 254 255 256 256 255 256 255
315 313 311 310 308 306 303 299 295 290 286 282 278 273 270 267 264 262 261 260 260 259 258 257 256 254 253 252 253 254 255 255 256 256 256 256 256 255
322 321 320 318 316 313 310 307 301 296 291 288 285 282 277 272 267 263 260 258 257 257 257 257 258 258 257 254 253 253 253 254 255 256 256 254 253 253
326 325 324 323 320 317 314 312 309 303 298 295 293 290 287 282 275 268 262 257 255 253 253 253 253 254 255 255 253 251 248 247 249 250 251 250 250 249
328 327 327 326 324 322 319 317 315 311 306 303 299 297 294 291 284 276 268 262 256 253 251 249 248 248 249 249 250 249 246 245 244 244 244 245 245 243
331 331 330 329 328 325 322 320 317 314 310 307 305 303 300 296 292 285 276 268 261 256 252 250 247 245 244 244 245 245 244 243 244 243 242 241 240 241
334 334 334 334 333 331 328 324 320 317 315 312 310 308 306 302 298 292 284 275 266 260 255 252 249 246 244 243 242 242 242 242 244 245 245 244 243 243
332 333 334 336 336 335 334 330 326 322 318 316 314 313 311 308 304 299 292 283 274 265 259 255 251 248 245 243 241 241 241 240 241 244 248 248 247 248
Height
5775 5773 5771 5769 5768 5768 5767 5767 5767 5767 5767 5767 5768 5769 5770 5771 5772 5773 5774 5776 5777 5779 5780 5782 5783 5784 5785 5786 5787 5788 5789 5790 5791 5793 5794 5795 5796 5797
5768 5767 5764 5762 5760 5759 5758 5757 5757 5757 5757 5757 5758 5759 5760 5761 5762 5763 5764 5766 5767 5770 5772 5773 5775 5776 5777 5778 5780 5781 5783 5784 5785 5787 5788 5790 5791 5791
5761 5760 5758 5756 5754 5752 5751 5749 5748 5747 5746 5746 5747 5749 5750 5751 5752 5754 5755 5756 5758 5760 5763 5765 5767 5768 5770 5771 5773 5774 5776 5777 5779 5781 5782 5784 5785 5785
5754 5753 5752 5750 5749 5747 5745 5743 5741 5739 5738 5738 5738 5739 5740 5741 5743 5745 5746 5748 5749 5751 5754 5756 5758 5760 5762 5764 5766 5768 5769 5771 5773 5774 5776 5777 5779 5780
5745 5745 5744 5743 5742 5741 5739 5737 5735 5733 5732 5731 5731 5731 5732 5733 5735 5736 5738 5740 5742 5744 5746 5748 5751 5753 5755 5757 5759 5761 5763 5764 5766 5768 5769 5771 5773 5774
5736 5736 5736 5735 5735 5734 5733 5731 5730 5729 5728 5727 5726 5725 5725 5726 5727 5729 5731 5733 5735 5737 5738 5740 5743 5746 5748 5750 5753 5754 5756 5757 5759 5760 5762 5764 5766 5768
5728 5727 5727 5727 5726 5726 5725 5724 5724 5723 5722 5722 5721 5721 5721 5721 5722 5723 5724 5726 5728 5730 5732 5734 5736 5739 5741 5743 5745 5747 5749 5750 5752 5754 5756 5758 5760 5762
5720 5719 5719 5718 5718 5717 5717 5716 5716 5716 5715 5715 5715 5715 5716 5716 5717 5717 5718 5720 5722 5724 5725 5728 5730 5732 5734 5736 5738 5740 5742 5744 5746 5747 5749 5751 5754 5756
5712 5711 5710 5710 5709 5709 5708 5707 5707 5707 5707 5708 5707 5708 5708 5709 5710 5711 5712 5714 5716 5717 5719 5721 5723 5725 5727 5729 5731 5733 5735 5737 5739 5741 5743 5745 5747 5750
5703 5703 5702 5701 5700 5700 5699 5698 5698 5698 5698 5698 5698 5699 5699 5701 5702 5704 5705 5706 5709 5710 5712 5714 5715 5717 5719 5721 5723 5726 5728 5730 5732 5734 5737 5739 5741 5743
5695 5695 5694 5693 5691 5691 5690 5689 5688 5688 5687 5687 5687 5688 5689 5690 5692 5694 5696 5698 5700 5702 5704 5706 5707 5709 5711 5713 5715 5717 5720 5723 5725 5727 5729 5731 5733 5735
5688 5687 5686 5685 5683 5682 5681 5680 5679 5678 5677 5677 5677 5677 5678 5679 5680 5682 5684 5686 5689 5692 5694 5696 5698 5700 5702 5704 5706 5708 5711 5714 5716 5719 5721 5723 5725 5727
5682 5680 5679 5677 5676 5674 5673 5671 5670 5669 5668 5667 5667 5667 5667 5667 5668 5669 5671 5674 5676 5679 5682 5685 5687 5690 5692 5694 5696 5698 5700 5703 5706 5709 5712 5714 5716 5718
5676 5674 5672 5670 5668 5666 5664 5663 5662 5660 5660 5659 5658 5658 5657 5657 5657 5658 5659 5661 5663 5666 5669 5672 5675 5677 5680 5682 5684 5687 5689 5692 5695 5698 5701 5703 5706 5708
5669 5667 5664 5662 5660 5657 5655 5653 5652 5650 5649 5649 5648 5648 5648 5648 5648 5648 5648 5649 5651 5653 5655 5658 5661 5664 5666 5669 5672 5674 5677 5680 5683 5686 5689 5692 5695 5697
5662 5660 5657 5654 5651 5649 5646 5644 5642 5640 5638 5637 5637 5637 5637 5637 5637 5637 5637 5638 5639 5641 5643 5645 5647 5650 5653 5655 5658 5661 5664 5667 5670 5673 5676 5679 5682 5685
5656 5653 5650 5647 5644 5641 5638 5635 5633 5630 5629 5627 5626 5625 5625 5625 5625 5626 5626 5626 5628 5629 5631 5632 5634 5636 5639 5642 5645 5648 5651 5653 5656 5660 5663 5667 5670 5673
5650 5647 5643 5640 5637 5633 5630 5627 5624 5622 5620 5618 5617 5615 5614 5614 5613 5613 5614 5615 5616 5617 5619 5621 5623 5624 5626 5629 5633 5636 5639 5641 5644 5647 5651 5654 5658 5661
5645 5642 5638 5634 5631 5627 5623 5620 5616 5614 5612 5610 5608 5606 5605 5603 5602 5601 5601 5602 5603 5605 5607 5609 5612 5613 5615 5618 5620 5624 5627 5630 5632 5635 5638 5642 5645 5649
5640 5637 5633 5629 5625 5621 5617 5613 5610 5607 5604 5602 5599 5597 5595 5593 5591 5589 5589 5589 5590 5592 5595 5597 5600 5603 5605 5608 5610 5612 5614 5618 5621 5624 5627 5630 5634 5637
5636 5632 5628 5624 5620 5616 5611 5608 5604 5600 5597 5594 5591 5589 5586 5583 5581 5579 5577 5577 5578 5579 5582 5585 5588 5591 5594 5597 5600 5602 5604 5606 5609 5612 5616 5619 5622 5625
5632 5628 5624 5620 5615 5611 5606 5602 5598 5594 5591 5587 5584 5581 5577 5574 5572 5569 5567 5566 5566 5567 5569 5572 5575 5578 5582 5585 5589 5591 5594 5597 5599 5602 5605 5608 5610 5614
5628 5624 5620 5615 5611 5606 5601 5597 5592 5588 5584 5580 5577 5573 5570 5566 5563 5560 5558 5556 5555 5556 5557 5559 5562 5565 5568 5572 5576 5580 5583 5587 5590 5593 5595 5597 5600 5603